Regional Weather Roundup
Issued by NWS

Home | Current Version | Previous Version | Text Only | Print | Product List | Glossary On
Versions: 1 2 3 4 5 6 7 8 9 10 11 12 13 14 15 16 17 18 19 20 21 22 23 24 25 26 27 28 29 30 31 32 33 34 35 36 37 38 39 40 41 42 43 44 45 46 47 48 49 50
000
ASUS43 KDTX 260410
RWRMI
MICHIGAN HOURLY REGIONAL WEATHER ROUNDUP
NATIONAL WEATHER SERVICE DETROIT/PONTIAC MI
1200 AM EDT THU APR 26 2018

NOTE: "FAIR" INDICATES FEW OR NO CLOUDS BELOW 12,000 FEET WITH NO
SIGNIFICANT WEATHER AND/OR OBSTRUCTION TO VISIBILITY.

MIZ047>049-052>055-059>063-066>070-074>076-081>083-260500-
SOUTHEAST LOWER MICHIGAN

CITY           SKY/WX    TMP DP  RH WIND       PRES   REMARKS
ADRIAN         CLOUDY    46  41  82 SE7       29.97S
ALMA           FAIR      38  35  87 W9        29.97F WCI  32
ANN ARBOR      FAIR      42  36  79 N5        29.95S
BAD AXE        FAIR      40  33  76 CALM      29.95F
CARO           FAIR      34  32  93 CALM      29.95F
DETROIT CITY   FAIR      42  34  73 CALM      29.96S
DETROIT        FAIR      45  36  70 NE6       29.96S
FLINT          FAIR      40  35  83 N3        29.96F
GROSSE ILE     FAIR      40  38  91 E3        29.96S
HILLSDALE      FAIR      45  32  61 CALM      29.94S
HOWELL         FAIR      40  37  86 CALM      29.96S

CITY           SKY/WX    TMP DP  RH WIND       PRES   REMARKS
JACKSON        FAIR      44  37  76 N5        29.95F
LAMBERTVILLE   FAIR      46  40  81 E3        29.96R
LANSING        FAIR      42  35  76 CALM      29.97F
LAPEER         CLOUDY    40  35  85 CALM      29.96F
MASON          FAIR      43  36  75 CALM      29.96F
MONROE         CLOUDY    43  40  89 SE7       29.95F
MT. CLEMENS    FAIR      38  38 100 N7        29.93F WCI  33
PONTIAC        FAIR      40  36  86 N5        29.94F
PORT HOPE        N/A     42  35  76 W6        29.92F
PORT HURON     CLOUDY    39  36  87 W3        29.95F
TRI CITIES     FAIR      41  37  86 SW5       29.97F
MIDLAND        FAIR      34  32  92 CALM      29.96F
TROY           FAIR      42  37  81 CALM      29.97F
SAGINAW HB     FAIR      37  36  93 CALM      29.96F
$$
MIZ043>046-050>051-056>058-064>065-071>073-077>080-260500-
SOUTHWEST LOWER MICHIGAN

CITY           SKY/WX    TMP DP  RH WIND       PRES   REMARKS
BATTLE CREEK   FAIR      42  33  70 NW5       29.96F
BENTON HARBOR  FAIR      39  31  72 NW3       29.99F
BIG RAPIDS     FAIR      38  28  67 NW3       29.97F
COLDWATER      FAIR      41  32  69 CALM      29.95F
FREMONT        FAIR      38  24  58 N3        29.98F
HOLLAND        FAIR      42  30  62 VRB3      29.99S
GRAND RAPIDS   FAIR      45  32  60 N5        29.97F
IONIA          FAIR      42  32  68 CALM      29.96F
KALAMAZOO      FAIR      39  31  72 N6        29.96F WCI  35
LUDINGTON      FAIR      30  28  94 CALM      29.99F
MARSHALL       FAIR      41  33  73 CALM      29.95F
MOUNT PLEASANT FAIR      41  32  69 CALM      29.97F
MUSKEGON       FAIR      42  27  55 N7        29.99F
SOUTH HAVEN    FAIR      38  32  79 CALM      29.98F
$$
MIZ016>042-260500-
NORTHERN LOWER MICHIGAN

CITY           SKY/WX    TMP DP  RH WIND       PRES   REMARKS
ALPENA         FAIR      35  27  72 NW5       29.95F WCI  31
BEAVER ISLAND  FAIR      33  27  79 CALM      29.97F
CADILLAC       FAIR      28  26  92 CALM      29.96F
CHARLEVOIX     FAIR      36  28  74 W3        30.00F
FRANKFORT      FAIR      32  29  87 CALM      30.00F
GAYLORD        FAIR      31  28  89 CALM      29.94F
GRAYLING       FAIR      26  25  96 CALM      29.95F
HARBOR SPRINGS FAIR      31  31  99 CALM      29.97F
HOUGHTON LAKE  FAIR      34  27  75 NW5       29.96F WCI  30
MANISTEE       FAIR      29  26  89 CALM      29.99F
OSCODA         FAIR      32  28  84 W5        29.94F WCI  28
PELLSTON       FAIR      29  28  96 CALM      29.97F
ROGERS CITY    FAIR      34  28  77 NW5       29.97S WCI  30
TRAVERSE CITY  FAIR      32  27  81 CALM      29.98F
$$
MIZ007>008-015-260500-
EASTERN UPPER MICHIGAN

CITY           SKY/WX    TMP DP  RH WIND       PRES   REMARKS
KINROSS        FAIR      29  26  89 NW7       29.95F WCI  22
MACKINAC ISLAN FAIR      33  26  74 NW7       29.96F WCI  27
NEWBERRY       FAIR      30  24  78 CALM      29.96F
MUNISING         N/A     29  25  85 S6        29.95F WCI  23
$$
MIZ004>006-011>014-085-260500-
CENTRAL UPPER MICHIGAN

CITY           SKY/WX    TMP DP  RH WIND       PRES   REMARKS
MANISTIQUE     FAIR      31  22  71 W10       29.97S WCI  22
ESCANABA       FAIR      30  26  85 CALM      29.98F
MENOMINEE      FAIR      35  27  72 SW5       29.99F WCI  31
SAWYER-GWINN   FAIR      30  22  73 CALM      29.95F
$$
MIZ001>003-009>011-084-260500-
WESTERN UPPER MICHIGAN

CITY           SKY/WX    TMP DP  RH WIND       PRES   REMARKS
IRON MOUNTAIN  FAIR      38  26  62 SE5       29.94F WCI  34
HOUGHTON       FAIR      36  20  52 CALM      29.91F
COPPER HARBOR    N/A     33  25  72 CALM      29.92F
IRONWOOD       FAIR      36  22  56 CALM      29.93F
$$

ABBREVIATIONS USED IN REMARKS
   TC - TEMPERATURE IN CELSIUS
  WCI - WIND CHILL INDEX
   HX - HEAT INDEX
  VSB - VISIBILITY





USA.gov is the U.S. government's official web portal to all federal, state and local government web resources and services.